Regional Weather Roundup
Issued by NWS Charleston, SC

Current Version | Previous Version | Text Only | Print | Product List | Glossary Off
Versions: 1 2 3 4 5 6 7 8 9 10 11 12 13 14 15 16 17 18 19 20 21 22 23 24 25 26 27 28 29 30 31 32 33 34 35 36 37 38 39 40 41 42 43 44 45 46 47 48 49 50

000
ASUS42 KCHS 010228
RWRCHS

REGIONAL WEATHER ROUNDUP
NATIONAL WEATHER SERVICE CHARLESTON SC
1000 PM EDT FRI SEP 30 2016

NOTE: "FAIR" INDICATES FEW OR NO CLOUDS BELOW 12,000 FEET WITH NO
SIGNIFICANT WEATHER AND/OR OBSTRUCTIONS TO VISIBILITY.

NOT ALL STATIONS ARE QUALITY CONTROLLED. USE DATA WITH CAUTION...
ESPECIALLY DEWPOINT OBSERVATIONS.

SCZ027-030-031-034>040-042>050-010300-
...SOUTHEAST SOUTH CAROLINA...

CITY           SKY/WX    TMP DP  RH WIND       PRES   REMARKS
N CHARLESTON   CLEAR     73  64  73 CALM      30.02R
WATERFRONT PRK   N/A     77  68  73 VRB3      29.99R
MOUNT PLEASANT FAIR      70  68  94 CALM      30.02S
JOHNS ISLAND   FAIR      72  68  88 CALM      30.02S
PINOPOLIS        N/A     75  64  69 VRB3      29.94R
MONCKS CORNER  FAIR      64  63  94 CALM      30.02R
SUMMERVILLE    NOT AVBL
BEAUFORT MCAS  CLEAR     71  61  70 CALM      30.02R
BEAUFORT ARPT  FAIR      73  66  78 CALM      30.02R
HILTON HEAD IS CLEAR     70  68  94 CALM      30.03R
WALTERBORO     CLEAR     66  66 100 CALM      30.03S
ALLENDALE      FAIR      63  59  88 CALM      30.02R

...SOUTHERN MIDLANDS AND PEE DEE...

CITY           SKY/WX    TMP DP  RH WIND       PRES   REMARKS
GEORGETOWN     FAIR      64  64 100 CALM      30.03R
KINGSTREE        N/A    N/A N/A N/A CALM      30.02R
ORANGEBURG     CLEAR     64  58  80 CALM      30.02R
BARNWELL       NOT AVBL
AIKEN          FAIR      59  52  77 CALM      30.06S
MANNING        FAIR      63  59  88 CALM      30.02R
COLUMBIA       CLEAR     65  56  72 CALM      30.01R
SUMTER         CLEAR     69  52  54 W6        29.99R
FLORENCE       CLEAR     70  62  76 W5        30.01R
MYRTLE BEACH   NOT AVBL
N MYRTLE BEACH PTCLDY    79  69  71 SW9       30.01R

$$

GAZ063-065-086>088-099>101-113>116-118-119-134>141-150-010300-
...SOUTHEAST GEORGIA...

CITY           SKY/WX    TMP DP  RH WIND       PRES   REMARKS
SAVANNAH ARPT  CLEAR     69  60  73 CALM      30.03R
HUNTER AAF     CLEAR     69  66  89 NW5       30.00R
FORT STEWART   CLEAR     65  58  79 CALM      30.01R
STATESBORO     CLEAR     62  61  96 CALM      30.03R
SYLVANIA       NOT AVBL
CLAXTON        FAIR      60  60 100 CALM      30.03R

...CSRA...CENTRAL AND FAR SOUTHEAST GEORGIA...

CITY           SKY/WX    TMP DP  RH WIND       PRES   REMARKS
THOMSON        CLEAR     61  54  77 CALM      30.09R
AUGUSTA-BUSH   CLEAR     58  54  86 CALM      30.02R
AUGUSTA-DANIEL CLEAR     73  46  38 NW6       30.04R
SWAINSBORO     FAIR      61  54  77 CALM      30.04S
VIDALIA        CLEAR     63  59  88 CALM      30.04R
EASTMAN        FAIR      59  49  68 CALM      30.06S
HAZLEHURST     FAIR      65  57  73 CALM      30.03R
ALMA           CLEAR     60  56  86 CALM      30.03R
WAYCROSS       CLEAR     67  59  75 CALM      30.03S
JESUP          FAIR      63  59  88 CALM      30.03S
BAXLEY         FAIR      63  59  88 CALM      30.03S
BRUNSWICK      CLEAR     73  63  68 NW3       30.04R
SAINT SIMONS   CLEAR     79  67  66 S5        30.01S

$$

SCZ027-028-034-036>038-045-046-048>050-GAZ119-141-010300-
...LAKE AND SUPPLEMENTAL COASTAL OBSERVATIONS...

STATION/POSITION TIME  TEMP    WIND        PRES    WAVE   SWELL
                       AIR SEA DIR/SP/G            HT/PER HT/PER/DIR
                 (UTC) (F)     (DEG/KT/KT) (MB)    (FT/S) (FT/S/D)
WINYAH BAY       0145   76     250/  2     1015.0S
LAKE MURRAY      0130   74     260/  6/  7 1015.6R
ACE BASIN NERRS  0145   71        CALM     1017.0R
FORT PULASKI     0200   77 82  310/  6/  7 1017.1
SAPELO ISLAND    0200   79     310/  6     1017.0

$$

ANZ835-935-AMZ111-154-330-350-352-354-370-450-454-472-010300-
...C-MAN AND BUOY OBSERVATIONS...

STATION/POSITION TIME  TEMP    WIND        PRES    WAVE   SWELL
                       AIR SEA DIR/SP/G            HT/PER HT/PER/DIR
                 (UTC) (F)     (DEG/KT/KT) (MB)    (FT/S) (FT/S/D)
BUOY 41004       0150   81 82  220/ 10/ 12 1015.8R   3/10   2/110/10
BUOY 41008       0150   81 82  160/  8/ 10 1016.2R   2/ 5   2/130/ 5
FOLLY BEACH CMAN 0200   77     290/  5/  8 1016.6R
CAPERS NEARSHORE 0108   81 82  240/  8/ 12 1015.7R
FRIPP NEARSHORE  0208   80 82  210/ 10/ 12 1016.4R


STATION/POSITION TIME  TEMP    WIND        PRES    WAVE   SWELL
                       AIR SEA DIR/SP/G            HT/PER HT/PER/DIR
                 (UTC) (F)     (DEG/KT/KT) (MB)    (FT/S) (FT/S/D)
5E ST. MARYS GA  0201      83                N/A     2/11
FRYING PAN BUOY  0210   81 82  180/  8/ 12 1016.5
BUOY 41025       0150   78 79  150/ 17/ 21 1017.2F   5/10   3/ 20/10
CAPE LOOKOUT NC  0200   78     140/ 15/ 16 1017.0R
BUOY 41002       0150   82 83  150/ 12/ 14 1019.0R   5/11   3/350/11
BUOY 41010       NOT AVBL
ST AUGUSTINE FL  0200   81 84  170/  8/ 10 1017.1R


$$




USA.gov is the U.S. government's official web portal to all federal, state and local government web resources and services.